,,PA_Meas_PMT16A,,PR_Meas_QMR101_102,,RH_Meas_QMH101,,SR_Meas_QMS101,,TA_Meas_QMH101,,GenWind,,GenWind,
time,status,PA,status,PR,status,RH,status,SR,status,TA,status,DirAvg,status,SpdAvg,
2013-06-07, 08:09:04,VALID,915.919,VALID,0,VALID,90.6272,VALID,135.054,VALID,20.2293,VALID,119,VALID,0,
2013-06-07, 08:10:04,VALID,916.188,VALID,0,VALID,90.4976,VALID,142.682,VALID,20.2098,VALID,142,VALID,0,
2013-06-07, 08:11:04,VALID,915.921,VALID,0,VALID,90.7491,VALID,150.525,VALID,20.2098,VALID,119,VALID,0,
2013-06-07, 08:12:04,VALID,915.892,VALID,0,VALID,91.1608,VALID,158.368,VALID,20.2879,VALID,133,VALID,0,
2013-06-07, 08:13:04,VALID,915.78,VALID,0,VALID,91.077,VALID,169.22,VALID,20.3043,VALID,134,VALID,0,
2013-06-07, 08:14:04,VALID,915.806,VALID,0,VALID,91.0846,VALID,172.98,VALID,20.3628,VALID,125,VALID,0,
2013-06-07, 08:15:04,VALID,916.336,VALID,0,VALID,90.2917,VALID,182.328,VALID,20.4228,VALID,148,VALID,0,
2013-06-07, 08:16:04,VALID,915.979,VALID,0,VALID,90.1926,VALID,196.51,VALID,20.5414,VALID,150,VALID,0,
2013-06-07, 08:17:04,VALID,915.929,VALID,0,VALID,89.9106,VALID,210.047,VALID,20.6194,VALID,168,VALID,0,
2013-06-07, 08:18:04,VALID,915.934,VALID,0,VALID,89.1635,VALID,234.007,VALID,20.6795,VALID,143,VALID,0,
2013-06-07, 08:19:04,VALID,916.075,VALID,0,VALID,89.0415,VALID,231.536,VALID,20.6975,VALID,139,VALID,0,
2013-06-07, 08:20:04,VALID,915.987,VALID,0,VALID,89.0415,VALID,268.388,VALID,20.756,VALID,166,VALID,0,
2013-06-07, 08:21:04,VALID,916.039,VALID,0,VALID,89.0339,VALID,245.181,VALID,20.8535,VALID,135,VALID,0,
2013-06-07, 08:22:04,VALID,916.057,VALID,0,VALID,88.2258,VALID,260.222,VALID,20.8894,VALID,146,VALID,0,
2013-06-07, 08:23:04,VALID,916.255,VALID,0,VALID,87.5168,VALID,251.95,VALID,20.9885,VALID,177,VALID,0,
2013-06-07, 08:24:04,VALID,916.141,VALID,0,VALID,87.1661,VALID,236.8,VALID,21.1055,VALID,143,VALID,0,
2013-06-07, 08:25:04,VALID,916.28,VALID,0,VALID,86.785,VALID,237.767,VALID,21.2031,VALID,112,VALID,0,
2013-06-07, 08:26:04,VALID,916.211,VALID,0,VALID,86.602,VALID,240.776,VALID,21.2616,VALID,163,VALID,0,
2013-06-07, 08:27:04,VALID,916.303,VALID,0,VALID,86.0989,VALID,244.536,VALID,21.3201,VALID,140,VALID,0,
2013-06-07, 08:28:04,VALID,916.239,VALID,0,VALID,85.8549,VALID,245.61,VALID,21.3169,VALID,146,VALID,0,
2013-06-07, 08:29:04,VALID,916.232,VALID,0,VALID,85.9693,VALID,241.85,VALID,21.3981,VALID,159,VALID,0,
2013-06-07, 08:30:04,VALID,916.284,VALID,0,VALID,85.9921,VALID,236.156,VALID,21.4567,VALID,157,VALID,0,
2013-06-07, 08:31:04,VALID,916.361,VALID,0,VALID,84.5513,VALID,233.04,VALID,21.4973,VALID,141,VALID,0,
2013-06-07, 08:32:04,VALID,916.284,VALID,0,VALID,84.5284,VALID,228.635,VALID,21.4957,VALID,179,VALID,0,
2013-06-07, 08:33:04,VALID,916.308,VALID,0,VALID,84.3836,VALID,225.089,VALID,21.5347,VALID,169,VALID,0,
2013-06-07, 08:34:04,VALID,916.273,VALID,0,VALID,84.1549,VALID,222.511,VALID,21.5542,VALID,164,VALID,0,
2013-06-07, 08:35:04,VALID,916.307,VALID,0,VALID,84.2083,VALID,220.899,VALID,21.5542,VALID,164,VALID,0,
2013-06-07, 08:36:04,VALID,916.269,VALID,0,VALID,84.7648,VALID,219.287,VALID,21.5542,VALID,159,VALID,0,
2013-06-07, 08:37:04,VALID,916.328,VALID,0,VALID,83.4764,VALID,218.106,VALID,21.5152,VALID,171,VALID,0,
2013-06-07, 08:38:04,VALID,916.399,VALID,0,VALID,83.9796,VALID,217.891,VALID,21.5347,VALID,182,VALID,0,
2013-06-07, 08:39:04,VALID,916.392,VALID,0,VALID,83.1334,VALID,217.139,VALID,21.5152,VALID,166,VALID,0,
2013-06-07, 08:40:04,VALID,916.412,VALID,0,VALID,83.4993,VALID,215.312,VALID,21.5152,VALID,152,VALID,0,
2013-06-07, 08:41:04,VALID,916.431,VALID,0,VALID,83.3773,VALID,213.378,VALID,21.5542,VALID,156,VALID,0,
2013-06-07, 08:42:04,VALID,916.385,VALID,0,VALID,83.1105,VALID,212.304,VALID,21.5721,VALID,159,VALID,0,
2013-06-07, 08:43:04,VALID,916.491,VALID,0,VALID,82.6988,VALID,211.444,VALID,21.6696,VALID,139,VALID,0,
2013-06-07, 08:44:04,VALID,916.393,VALID,0,VALID,82.6912,VALID,211.444,VALID,21.7298,VALID,125,VALID,0,
2013-06-07, 08:45:04,VALID,916.411,VALID,0,VALID,82.1576,VALID,212.626,VALID,21.7493,VALID,132,VALID,0,
2013-06-07, 08:46:04,VALID,916.501,VALID,0,VALID,80.5566,VALID,214.13,VALID,21.7883,VALID,135,VALID,0,
2013-06-07, 08:47:04,VALID,916.468,VALID,0,VALID,81.441,VALID,218.75,VALID,21.7688,VALID,142,VALID,0,
2013-06-07, 08:48:04,VALID,916.397,VALID,0,VALID,81.8907,VALID,265.809,VALID,21.8079,VALID,133,VALID,0,
2013-06-07, 08:49:04,VALID,916.415,VALID,0,VALID,82.2109,VALID,223.155,VALID,21.8859,VALID,164,VALID,0,
2013-06-07, 08:50:04,VALID,916.437,VALID,0,VALID,81.4181,VALID,224.659,VALID,21.964,VALID,184,VALID,0,
2013-06-07, 08:51:04,VALID,916.532,VALID,0,VALID,80.9149,VALID,230.891,VALID,22.0615,VALID,142,VALID,0,
2013-06-07, 08:52:04,VALID,916.424,VALID,0,VALID,81.5629,VALID,243.784,VALID,22.1769,VALID,146,VALID,0,
2013-06-07, 08:53:04,VALID,916.508,VALID,0,VALID,81.4181,VALID,245.825,VALID,22.3152,VALID,137,VALID,0,
2013-06-07, 08:54:04,VALID,916.467,VALID,0,VALID,80.1069,VALID,250.983,VALID,22.3933,VALID,137,VALID,0,
2013-06-07, 08:55:04,VALID,916.42,VALID,0,VALID,80.7167,VALID,256.14,VALID,22.4306,VALID,136,VALID,0,
2013-06-07, 08:56:04,VALID,916.514,VALID,0,VALID,79.8782,VALID,262.801,VALID,22.4908,VALID,142,VALID,0,
2013-06-07, 08:57:04,VALID,916.555,VALID,0,VALID,79.6876,VALID,270.859,VALID,22.5689,VALID,144,VALID,0,
2013-06-07, 08:58:04,VALID,916.563,VALID,0,VALID,79.3903,VALID,280.636,VALID,22.6274,VALID,172,VALID,0,
2013-06-07, 08:59:04,VALID,916.601,VALID,0,VALID,79.192,VALID,293.099,VALID,22.6843,VALID,128,VALID,0,
2013-06-07, 09:00:04,VALID,916.529,VALID,0,VALID,79.9086,VALID,304.058,VALID,22.7428,VALID,120,VALID,0,
2013-06-07, 09:01:04,VALID,916.425,VALID,0,VALID,79.9468,VALID,310.075,VALID,22.7428,VALID,111,VALID,0,
2013-06-07, 09:02:04,VALID,916.546,VALID,0,VALID,79.8934,VALID,319.208,VALID,22.8031,VALID,111,VALID,0,
2013-06-07, 09:03:04,VALID,916.55,VALID,0,VALID,79.2607,VALID,345.423,VALID,22.8599,VALID,144,VALID,0,
2013-06-07, 09:04:04,VALID,916.483,VALID,0,VALID,78.6355,VALID,314.373,VALID,22.977,VALID,172,VALID,0,
2013-06-07, 09:05:04,VALID,916.431,VALID,0,VALID,78.7575,VALID,301.91,VALID,23.1544,VALID,173,VALID,0,
2013-06-07, 09:06:04,VALID,916.483,VALID,0,VALID,79.7104,VALID,288.909,VALID,23.2307,VALID,110,VALID,0,
2013-06-07, 09:07:04,VALID,916.739,VALID,0,VALID,77.8122,VALID,278.058,VALID,23.2893,VALID,124,VALID,0,
2013-06-07, 09:08:04,VALID,916.555,VALID,0,VALID,76.8593,VALID,268.281,VALID,23.2698,VALID,135,VALID,0,
2013-06-07, 09:09:04,VALID,916.505,VALID,0,VALID,78.0485,VALID,258.933,VALID,23.213,VALID,128,VALID,0,
2013-06-07, 09:10:04,VALID,916.278,VALID,0,VALID,78.3154,VALID,250.875,VALID,23.1544,VALID,109,VALID,0,
2013-06-07, 09:11:04,VALID,916.436,VALID,0,VALID,76.9889,VALID,243.999,VALID,23.1349,VALID,146,VALID,0,
2013-06-07, 09:12:04,VALID,916.506,VALID,0,VALID,77.1261,VALID,239.271,VALID,23.1331,VALID,132,VALID,0,
2013-06-07, 09:13:04,VALID,916.339,VALID,0,VALID,77.7741,VALID,236.263,VALID,23.0941,VALID,160,VALID,0,
2013-06-07, 09:14:04,VALID,916.515,VALID,0,VALID,78.2391,VALID,235.511,VALID,23.1544,VALID,163,VALID,0,
2013-06-07, 09:15:04,VALID,916.619,VALID,0,VALID,77.9266,VALID,236.478,VALID,23.1739,VALID,140,VALID,0,
2013-06-07, 09:16:04,VALID,916.451,VALID,0,VALID,76.7754,VALID,239.057,VALID,23.1544,VALID,162,VALID,0,
2013-06-07, 09:17:04,VALID,916.481,VALID,0,VALID,77.6521,VALID,243.032,VALID,23.0746,VALID,138,VALID,0,
2013-06-07, 09:18:04,VALID,916.494,VALID,0,VALID,78.1705,VALID,247.222,VALID,23.0568,VALID,168,VALID,0,
2013-06-07, 09:19:04,VALID,916.477,VALID,0,VALID,77.5149,VALID,252.594,VALID,23.0763,VALID,155,VALID,0,
2013-06-07, 09:20:04,VALID,916.354,VALID,0,VALID,77.37,VALID,259.041,VALID,23.1154,VALID,143,VALID,0,
2013-06-07, 09:21:04,VALID,916.524,VALID,0,VALID,76.9279,VALID,266.024,VALID,23.1136,VALID,154,VALID,0,
2013-06-07, 09:22:04,VALID,916.477,VALID,0,VALID,77.5149,VALID,273.545,VALID,23.2112,VALID,168,VALID,0,
2013-06-07, 09:23:04,VALID,916.526,VALID,0,VALID,77.2404,VALID,281.066,VALID,23.2112,VALID,163,VALID,0,
2013-06-07, 09:24:04,VALID,916.496,VALID,0,VALID,76.5696,VALID,288.802,VALID,23.2698,VALID,167,VALID,0,
2013-06-07, 09:25:04,VALID,916.493,VALID,0,VALID,77.1185,VALID,295.356,VALID,23.3088,VALID,188,VALID,0,
2013-06-07, 09:26:04,VALID,916.522,VALID,0,VALID,76.6992,VALID,304.273,VALID,23.3869,VALID,169,VALID,0,
2013-06-07, 09:27:04,VALID,916.562,VALID,0,VALID,76.2265,VALID,316.522,VALID,23.3283,VALID,161,VALID,0,
2013-06-07, 09:28:04,VALID,916.496,VALID,0,VALID,76.9965,VALID,331.241,VALID,23.3088,VALID,179,VALID,0,
2013-06-07, 09:29:04,VALID,916.543,VALID,0,VALID,75.7158,VALID,345.316,VALID,23.2893,VALID,167,VALID,0,
2013-06-07, 09:30:04,VALID,916.507,VALID,0,VALID,75.975,VALID,359.498,VALID,23.2893,VALID,225,VALID,0,
2013-06-07, 09:31:04,VALID,916.528,VALID,0,VALID,75.6395,VALID,372.821,VALID,23.3283,VALID,135,VALID,0,
2013-06-07, 09:32:04,VALID,916.563,VALID,0,VALID,76.9736,VALID,392.697,VALID,23.4064,VALID,185,VALID,0,
2013-06-07, 09:33:04,VALID,916.582,VALID,0,VALID,75.4108,VALID,421.921,VALID,23.5448,VALID,190,VALID,0,
2013-06-07, 09:34:04,VALID,916.54,VALID,0,VALID,75.2736,VALID,447.815,VALID,23.6016,VALID,135,VALID,0,
2013-06-07, 09:35:04,VALID,916.543,VALID,0,VALID,73.97,VALID,500.246,VALID,23.6406,VALID,172,VALID,0,
2013-06-07, 09:36:04,VALID,916.592,VALID,0,VALID,72.5597,VALID,615.208,VALID,23.7578,VALID,166,VALID,0,
2013-06-07, 09:37:04,VALID,916.489,VALID,0,VALID,74.9077,VALID,574.38,VALID,23.8554,VALID,164,VALID,0,
2013-06-07, 09:38:04,VALID,916.484,VALID,0,VALID,68.8623,VALID,617.679,VALID,24.0719,VALID,148,VALID,0,
2013-06-07, 09:39:04,VALID,916.575,VALID,0,VALID,72.9103,VALID,576.529,VALID,24.2849,VALID,158,VALID,0,
2013-06-07, 09:40:04,VALID,916.57,VALID,0,VALID,70.326,VALID,731.782,VALID,24.5564,VALID,97,VALID,0,
2013-06-07, 09:41:04,VALID,916.607,VALID,0,VALID,68.7937,VALID,536.561,VALID,24.773,VALID,159,VALID,0,
2013-06-07, 09:42:04,VALID,916.635,VALID,0,VALID,66.2246,VALID,498.957,VALID,24.8883,VALID,169,VALID,0,
2013-06-07, 09:43:04,VALID,916.6,VALID,0,VALID,67.5968,VALID,701.376,VALID,25.0445,VALID,162,VALID,0,
2013-06-07, 09:44:04,VALID,916.6,VALID,0,VALID,66.3923,VALID,991.037,VALID,25.2593,VALID,162,VALID,0,
2013-06-07, 09:45:04,VALID,916.623,VALID,0,VALID,65.7977,VALID,767.56,VALID,25.5132,VALID,183,VALID,0,
2013-06-07, 09:46:04,VALID,916.594,VALID,0,VALID,64.3493,VALID,681.499,VALID,25.8472,VALID,160,VALID,0,
2013-06-07, 09:47:04,VALID,916.6,VALID,0,VALID,63.6479,VALID,559.016,VALID,26.1227,VALID,185,VALID,0,
2013-06-07, 09:48:04,VALID,916.575,VALID,0,VALID,60.4689,VALID,630.035,VALID,26.2985,VALID,193,VALID,0,
2013-06-07, 09:49:04,VALID,916.498,VALID,0,VALID,61.4524,VALID,789.37,VALID,26.3746,VALID,181,VALID,0,
2013-06-07, 09:50:04,VALID,916.534,VALID,0,VALID,61.1474,VALID,507.015,VALID,26.4528,VALID,172,VALID,0,
2013-06-07, 09:51:04,VALID,916.562,VALID,0,VALID,60.9797,VALID,386.896,VALID,26.4723,VALID,171,VALID,0,
2013-06-07, 09:52:04,VALID,916.536,VALID,0,VALID,60.7662,VALID,436.211,VALID,26.3726,VALID,134,VALID,0,
2013-06-07, 09:53:04,VALID,916.587,VALID,0,VALID,62.9237,VALID,354.019,VALID,26.314,VALID,191,VALID,0,
2013-06-07, 09:54:04,VALID,916.5,VALID,0,VALID,61.4524,VALID,285.686,VALID,26.2379,VALID,174,VALID,0,
2013-06-07, 09:55:04,VALID,916.507,VALID,0,VALID,62.5959,VALID,270.859,VALID,26.1793,VALID,128,VALID,0,
2013-06-07, 09:56:04,VALID,916.529,VALID,0,VALID,63.5488,VALID,254.636,VALID,26.0816,VALID,158,VALID,0,
2013-06-07, 09:57:04,VALID,916.53,VALID,0,VALID,65.0659,VALID,248.941,VALID,25.9234,VALID,157,VALID,0,
2013-06-07, 09:58:04,VALID,916.444,VALID,0,VALID,62.9389,VALID,255.28,VALID,25.7671,VALID,158,VALID,0,
2013-06-07, 09:59:04,VALID,916.429,VALID,0,VALID,62.3748,VALID,234.759,VALID,25.7085,VALID,159,VALID,0,
2013-06-07, 10:00:04,VALID,916.394,VALID,0,VALID,64.2959,VALID,235.511,VALID,25.7085,VALID,159,VALID,0,
2013-06-07, 10:01:04,VALID,916.379,VALID,0,VALID,62.5349,VALID,249.586,VALID,25.73,VALID,159,VALID,0,
2013-06-07, 10:02:04,VALID,916.339,VALID,0,VALID,62.8551,VALID,272.578,VALID,25.7886,VALID,159,VALID,0,
2013-06-07, 10:03:04,VALID,916.289,VALID,0,VALID,60.4994,VALID,279.24,VALID,25.8062,VALID,166,VALID,0,
2013-06-07, 10:04:04,VALID,916.354,VALID,0,VALID,61.2694,VALID,272.901,VALID,25.7476,VALID,166,VALID,0,
2013-06-07, 10:05:04,VALID,916.341,VALID,0,VALID,63.7089,VALID,283.322,VALID,25.7105,VALID,166,VALID,0,
2013-06-07, 10:06:04,VALID,916.334,VALID,0,VALID,64.4484,VALID,306.744,VALID,25.6519,VALID,166,VALID,0,
2013-06-07, 10:07:04,VALID,916.248,VALID,0,VALID,60.8044,VALID,356.275,VALID,25.6714,VALID,169,VALID,0,
2013-06-07, 10:08:04,VALID,916.222,VALID,0,VALID,58.6088,VALID,316.629,VALID,25.6499,VALID,169,VALID,0,
2013-06-07, 10:09:04,VALID,916.215,VALID,0,VALID,60.3775,VALID,343.06,VALID,25.73,VALID,168,VALID,0,
2013-06-07, 10:10:04,VALID,916.213,VALID,0,VALID,61.7268,VALID,370.994,VALID,25.8257,VALID,168,VALID,0,
2013-06-07, 10:11:04,VALID,917.565,VALID,0,VALID,61.0636,VALID,396.888,VALID,25.9624,VALID,168,VALID,0,
2013-06-07, 10:12:04,VALID,916.242,VALID,0,VALID,53.8976,VALID,455.55,VALID,26.0796,VALID,168,VALID,0,
2013-06-07, 10:13:04,VALID,916.214,VALID,0,VALID,58.4945,VALID,502.61,VALID,26.2945,VALID,160,VALID,0,
2013-06-07, 10:14:04,VALID,916.165,VALID,0,VALID,55.2621,VALID,667.747,VALID,26.4898,VALID,171,VALID,0,
2013-06-07, 10:15:04,VALID,916.171,VALID,0,VALID,45.9692,VALID,449.211,VALID,26.6852,VALID,179,VALID,0,
2013-06-07, 10:16:04,VALID,916.331,VALID,0,VALID,48.9042,VALID,423.533,VALID,26.7809,VALID,179,VALID,0,
2013-06-07, 10:17:04,VALID,916.19,VALID,0,VALID,47.7607,VALID,441.261,VALID,26.8024,VALID,172,VALID,0,
2013-06-07, 10:18:04,VALID,916.193,VALID,0,VALID,47.5091,VALID,427.938,VALID,26.9001,VALID,178,VALID,0,
2013-06-07, 10:19:04,VALID,916.214,VALID,0,VALID,51.2675,VALID,419.88,VALID,26.9197,VALID,154,VALID,0,
2013-06-07, 10:20:04,VALID,916.139,VALID,0,VALID,51.6563,VALID,563.421,VALID,26.8806,VALID,155,VALID,0,
2013-06-07, 10:21:04,VALID,916.153,VALID,0,VALID,53.2191,VALID,537.743,VALID,26.9783,VALID,155,VALID,0,
2013-06-07, 10:22:04,VALID,916.173,VALID,0,VALID,53.0971,VALID,429.335,VALID,27.076,VALID,169,VALID,0,
2013-06-07, 10:23:04,VALID,916.161,VALID,0,VALID,49.4836,VALID,445.773,VALID,26.8785,VALID,129,VALID,0,
2013-06-07, 10:24:04,VALID,916.168,VALID,0,VALID,47.471,VALID,429.55,VALID,26.7613,VALID,159,VALID,0,
2013-06-07, 10:25:04,VALID,916.186,VALID,0,VALID,48.4316,VALID,490.576,VALID,26.7809,VALID,159,VALID,0,
2013-06-07, 10:26:04,VALID,916.17,VALID,0,VALID,52.1823,VALID,411.392,VALID,26.7613,VALID,147,VALID,0,
2013-06-07, 10:27:04,VALID,916.201,VALID,0,VALID,53.4783,VALID,392.483,VALID,26.7809,VALID,150,VALID,0,
2013-06-07, 10:28:04,VALID,916.18,VALID,0,VALID,54.0881,VALID,384.639,VALID,26.8004,VALID,150,VALID,0,
2013-06-07, 10:29:04,VALID,916.165,VALID,0,VALID,53.9738,VALID,378.3,VALID,26.9783,VALID,150,VALID,0,
2013-06-07, 10:30:04,VALID,916.175,VALID,0,VALID,54.0576,VALID,377.656,VALID,26.8785,VALID,154,VALID,0,
2013-06-07, 10:31:04,VALID,916.2,VALID,0,VALID,56.7258,VALID,385.284,VALID,26.8004,VALID,176,VALID,0,
2013-06-07, 10:32:04,VALID,916.21,VALID,0,VALID,54.9115,VALID,412.359,VALID,26.8024,VALID,182,VALID,0,
2013-06-07, 10:33:04,VALID,916.217,VALID,0,VALID,52.9522,VALID,402.367,VALID,26.7613,VALID,177,VALID,0,
2013-06-07, 10:34:04,VALID,916.211,VALID,0,VALID,56.2379,VALID,406.88,VALID,26.6246,VALID,160,VALID,0,
2013-06-07, 10:35:04,VALID,916.192,VALID,0,VALID,59.3559,VALID,399.466,VALID,26.4683,VALID,131,VALID,0,
2013-06-07, 10:36:04,VALID,916.209,VALID,0,VALID,60.9721,VALID,408.921,VALID,26.3531,VALID,117,VALID,0,
2013-06-07, 10:37:04,VALID,916.195,VALID,0,VALID,63.0152,VALID,474.89,VALID,26.2534,VALID,130,VALID,0,
2013-06-07, 10:38:04,VALID,916.198,VALID,0,VALID,59.577,VALID,588.563,VALID,26.312,VALID,153,VALID,0,
2013-06-07, 10:39:04,VALID,916.217,VALID,0,VALID,61.4981,VALID,485.312,VALID,26.4117,VALID,172,VALID,0,
2013-06-07, 10:40:04,VALID,916.185,VALID,0,VALID,62.2452,VALID,454.691,VALID,26.5074,VALID,190,VALID,0,
2013-06-07, 10:41:04,VALID,916.188,VALID,0,VALID,62.7636,VALID,490.791,VALID,26.6461,VALID,190,VALID,0,
2013-06-07, 10:42:04,VALID,916.228,VALID,0,VALID,59.1272,VALID,605.861,VALID,26.5289,VALID,158,VALID,0,
2013-06-07, 10:43:04,VALID,916.209,VALID,0,VALID,60.7434,VALID,915.291,VALID,26.605,VALID,158,VALID,0,
2013-06-07, 10:44:04,VALID,916.209,VALID,0,VALID,60.7739,VALID,910.564,VALID,26.6832,VALID,105,VALID,0,
2013-06-07, 10:45:04,VALID,916.201,VALID,0,VALID,59.5236,VALID,876.183,VALID,26.5269,VALID,122,VALID,0,
2013-06-07, 10:46:04,VALID,916.186,VALID,0,VALID,59.0434,VALID,815.908,VALID,26.3511,VALID,175,VALID,0,
2013-06-07, 10:47:04,VALID,916.211,VALID,0,VALID,60.3698,VALID,687.301,VALID,26.4117,VALID,130,VALID,0,
2013-06-07, 10:48:04,VALID,916.186,VALID,0,VALID,56.5581,VALID,963.962,VALID,26.566,VALID,149,VALID,0,
2013-06-07, 10:49:04,VALID,916.189,VALID,0,VALID,54.1872,VALID,961.276,VALID,26.7418,VALID,167,VALID,0,
2013-06-07, 10:50:04,VALID,916.182,VALID,0,VALID,56.9698,VALID,941.185,VALID,26.9372,VALID,87,VALID,0,
2013-06-07, 10:51:04,VALID,916.213,VALID,0,VALID,54.4846,VALID,517.222,VALID,27.0544,VALID,99,VALID,0,
2013-06-07, 10:52:04,VALID,916.188,VALID,0,VALID,52.2738,VALID,908.737,VALID,27.1325,VALID,159,VALID,0,
2013-06-07, 10:53:04,VALID,916.18,VALID,0,VALID,54.4083,VALID,862.967,VALID,27.2127,VALID,147,VALID,0,
2013-06-07, 10:54:04,VALID,916.133,VALID,0,VALID,51.763,VALID,836.967,VALID,27.2518,VALID,153,VALID,0,
2013-06-07, 10:55:04,VALID,916.134,VALID,0,VALID,50.8406,VALID,818.272,VALID,27.1737,VALID,164,VALID,0,
2013-06-07, 10:56:04,VALID,916.13,VALID,0,VALID,51.3361,VALID,809.247,VALID,27.078,VALID,154,VALID,0,
2013-06-07, 10:57:04,VALID,916.126,VALID,0,VALID,52.6473,VALID,800.222,VALID,27.1562,VALID,155,VALID,0,
2013-06-07, 10:58:04,VALID,916.099,VALID,0,VALID,54.2177,VALID,795.709,VALID,27.1737,VALID,103,VALID,0,
2013-06-07, 10:59:04,VALID,916.119,VALID,0,VALID,51.1074,VALID,789.478,VALID,27.2909,VALID,177,VALID,0,
2013-06-07, 11:00:04,VALID,916.111,VALID,0,VALID,52.3195,VALID,787.436,VALID,27.2909,VALID,176,VALID,0,
2013-06-07, 11:01:04,VALID,916.088,VALID,0,VALID,52.1823,VALID,789.155,VALID,27.4061,VALID,194,VALID,0,
2013-06-07, 11:02:04,VALID,916.087,VALID,0,VALID,51.3666,VALID,784.106,VALID,27.6427,VALID,159,VALID,0,
2013-06-07, 11:03:04,VALID,916.094,VALID,0,VALID,49.2625,VALID,786.899,VALID,27.9163,VALID,195,VALID,0,
2013-06-07, 11:04:04,VALID,916.096,VALID,0,VALID,50.9397,VALID,785.395,VALID,27.8576,VALID,173,VALID,0,
2013-06-07, 11:05:04,VALID,916.067,VALID,0,VALID,52.6854,VALID,785.932,VALID,27.6601,VALID,168,VALID,0,
2013-06-07, 11:06:04,VALID,916.065,VALID,0,VALID,50.1621,VALID,789.692,VALID,27.6601,VALID,167,VALID,0,
2013-06-07, 11:07:04,VALID,916.057,VALID,0,VALID,49.1329,VALID,792.486,VALID,27.7208,VALID,172,VALID,0,
2013-06-07, 11:08:04,VALID,916.06,VALID,0,VALID,48.9652,VALID,793.56,VALID,27.7599,VALID,164,VALID,0,
2013-06-07, 11:09:04,VALID,916.057,VALID,0,VALID,48.058,VALID,795.279,VALID,27.7578,VALID,175,VALID,0,
2013-06-07, 11:10:04,VALID,916.062,VALID,0,VALID,44.658,VALID,793.023,VALID,27.8772,VALID,188,VALID,0,
2013-06-07, 11:11:04,VALID,916.015,VALID,0,VALID,44.536,VALID,793.131,VALID,28.0705,VALID,179,VALID,0,
2013-06-07, 11:12:04,VALID,916.019,VALID,0,VALID,47.1889,VALID,793.023,VALID,28.2268,VALID,185,VALID,0,
2013-06-07, 11:13:04,VALID,916.012,VALID,0,VALID,44.2234,VALID,797.106,VALID,28.3441,VALID,192,VALID,0,
2013-06-07, 11:14:04,VALID,915.965,VALID,0,VALID,44.2082,VALID,799.255,VALID,28.2464,VALID,71,VALID,0,
2013-06-07, 11:15:04,VALID,915.958,VALID,0,VALID,43.3772,VALID,799.577,VALID,28.2855,VALID,125,VALID,0,
2013-06-07, 11:16:04,VALID,915.961,VALID,0,VALID,45.3212,VALID,799.577,VALID,28.1682,VALID,114,VALID,0,
2013-06-07, 11:17:04,VALID,915.948,VALID,0,VALID,47.1661,VALID,808.065,VALID,28.2268,VALID,49,VALID,0,
2013-06-07, 11:18:04,VALID,915.949,VALID,0,VALID,41.1741,VALID,811.288,VALID,28.4418,VALID,146,VALID,0,
2013-06-07, 11:19:04,VALID,915.908,VALID,0,VALID,39.3444,VALID,813.544,VALID,28.5005,VALID,189,VALID,0,
2013-06-07, 11:20:04,VALID,915.911,VALID,0,VALID,42.1575,VALID,823.322,VALID,28.5787,VALID,204,VALID,0,
2013-06-07, 11:21:04,VALID,915.888,VALID,0,VALID,43.6898,VALID,844.487,VALID,28.6568,VALID,170,VALID,0,
2013-06-07, 11:22:04,VALID,915.923,VALID,0,VALID,42.3709,VALID,862.108,VALID,28.5982,VALID,201,VALID,0,
2013-06-07, 11:23:04,VALID,915.879,VALID,0,VALID,41.9212,VALID,855.446,VALID,28.7546,VALID,204,VALID,0,
2013-06-07, 11:24:04,VALID,915.871,VALID,0,VALID,42.5996,VALID,881.77,VALID,28.8719,VALID,165,VALID,0,
2013-06-07, 11:25:04,VALID,915.89,VALID,0,VALID,43.6059,VALID,884.67,VALID,28.9501,VALID,186,VALID,0,
2013-06-07, 11:26:04,VALID,915.836,VALID,0,VALID,42.4396,VALID,775.295,VALID,29.1064,VALID,127,VALID,0,
2013-06-07, 11:27:04,VALID,915.821,VALID,0,VALID,41.3113,VALID,848.57,VALID,29.2042,VALID,125,VALID,0,
2013-06-07, 11:28:04,VALID,915.793,VALID,0,VALID,42.6606,VALID,826.867,VALID,29.0673,VALID,127,VALID,0,
2013-06-07, 11:29:04,VALID,915.767,VALID,0,VALID,40.7319,VALID,790.874,VALID,29.0673,VALID,185,VALID,0,
2013-06-07, 11:30:04,VALID,915.72,VALID,0,VALID,40.3507,VALID,896.382,VALID,29.2042,VALID,205,VALID,0,
2013-06-07, 11:31:04,VALID,915.716,VALID,0,VALID,41.5247,VALID,847.926,VALID,29.2824,VALID,236,VALID,0,
2013-06-07, 11:32:04,VALID,915.697,VALID,0,VALID,40.183,VALID,773.469,VALID,29.1651,VALID,160,VALID,0,
2013-06-07, 11:33:04,VALID,915.718,VALID,0,VALID,44.1624,VALID,566.322,VALID,29.1629,VALID,190,VALID,0,
2013-06-07, 11:34:04,VALID,915.706,VALID,0,VALID,42.9122,VALID,568.149,VALID,29.2824,VALID,260,VALID,0,
2013-06-07, 11:35:04,VALID,915.676,VALID,0,VALID,43.8499,VALID,605.109,VALID,29.1651,VALID,317,VALID,0,
2013-06-07, 11:36:04,VALID,915.67,VALID,0,VALID,42.8817,VALID,572.876,VALID,29.1433,VALID,341,VALID,0,
2013-06-07, 11:37:04,VALID,915.708,VALID,0,VALID,44.6961,VALID,597.158,VALID,29.1629,VALID,126,VALID,0,
2013-06-07, 11:38:04,VALID,915.73,VALID,0,VALID,45.5728,VALID,611.555,VALID,29.2802,VALID,117,VALID,0,
2013-06-07, 11:39:04,VALID,915.742,VALID,0,VALID,45.6643,VALID,621.547,VALID,29.4388,VALID,129,VALID,0,
2013-06-07, 11:40:04,VALID,915.728,VALID,0,VALID,41.6696,VALID,598.877,VALID,29.5148,VALID,166,VALID,0,
2013-06-07, 11:41:04,VALID,915.711,VALID,0,VALID,41.883,VALID,561.702,VALID,29.5734,VALID,166,VALID,0,
2013-06-07, 11:42:04,VALID,915.721,VALID,0,VALID,43.3696,VALID,541.826,VALID,29.6148,VALID,237,VALID,0,
2013-06-07, 11:43:04,VALID,915.706,VALID,0,VALID,45.0391,VALID,533.23,VALID,29.7321,VALID,237,VALID,0,
2013-06-07, 11:44:04,VALID,915.734,VALID,0,VALID,41.7382,VALID,524.42,VALID,29.4561,VALID,239,VALID,0,
2013-06-07, 11:45:04,VALID,915.704,VALID,0,VALID,43.6745,VALID,520.23,VALID,29.1433,VALID,248,VALID,0,
2013-06-07, 11:46:04,VALID,915.729,VALID,0,VALID,44.2539,VALID,523.668,VALID,29.026,VALID,251,VALID,0,
2013-06-07, 11:47:04,VALID,915.707,VALID,0,VALID,44.3912,VALID,523.776,VALID,29.1238,VALID,308,VALID,0,
2013-06-07, 11:48:04,VALID,915.705,VALID,0,VALID,45.1916,VALID,535.809,VALID,29.1629,VALID,263,VALID,0,
2013-06-07, 11:49:04,VALID,915.682,VALID,0,VALID,42.9351,VALID,525.065,VALID,29.202,VALID,271,VALID,0,
2013-06-07, 11:50:04,VALID,915.674,VALID,0,VALID,44.1396,VALID,523.99,VALID,29.1433,VALID,265,VALID,0,
2013-06-07, 11:51:04,VALID,915.69,VALID,0,VALID,45.2602,VALID,522.809,VALID,29.0456,VALID,265,VALID,0,
2013-06-07, 11:52:04,VALID,915.647,VALID,0,VALID,46.0302,VALID,561.595,VALID,29.0456,VALID,285,VALID,0,
2013-06-07, 11:53:04,VALID,915.669,VALID,0,VALID,44.8028,VALID,520.23,VALID,28.9674,VALID,245,VALID,0,
2013-06-07, 11:54:04,VALID,915.657,VALID,0,VALID,45.954,VALID,523.776,VALID,28.811,VALID,234,VALID,0,
2013-06-07, 11:55:04,VALID,915.636,VALID,0,VALID,44.8409,VALID,523.883,VALID,28.7937,VALID,261,VALID,0,